Find Starlink 11726

NORAD ID: 64067 Int'l Des: 2025-107 Owner: SPXS Country: US Constellation: starlink operational
LEOCIRCULAR

Current View

Loading 3D Globe...

About Starlink 11726

Description loading...

Upcoming Passes

Passes for default location (London). Set your location on the main map for personalized predictions.

Altitude History

Loading altitude history...

Two-Line Element Set

1 64067U 25107D 26149.91147179 .00169637 00000-0 12964-2 0 9995
2 64067 43.0001 328.5233 0001595 276.2222 83.8464 15.70883018 60079
Epoch: May 29, 2026 • Age: 34 hours

Current Status

Altitude 355.8 km
Velocity 7.70 km/s
Sub-Earth Point 26.24°N, 98.89°E
Launch Date May 21, 2025
Age 1 years
Type internet

Technical Details

Classification Payload
Mass 960.00 kg
Dry Mass 910.00 kg
Total Mass 960.00 kg
Length 0.30 m
Diameter 4.10 m
Span 29.00 m
Shape Box + pan
Manufacturer SPXS
Bus Type Starlink V2MD
Phase Status In Orbit
Owner/State SPXS/US

Most Searched